Location: Caltech
(34.1382°N, 118.1253°W)
Time: 13:51:14
(UTC-07:00)

JAS-1B - Visible Passes

Search period start: 28 June 2017 00:00
Search period end: 08 July 2017 00:00
Orbit: 911 x 1744 km, 99.1° (Epoch: 27 June)

Date Brightness Start Highest point End Pass type
(mag) Time Alt. Az. Time Alt. Az. Time Alt. Az.
28 Jun 6.9 02:37:07 66° SSE 02:37:58 82° ENE 02:44:18 10° NNW visible
29 Jun 9.3 01:04:12 10° E 01:07:14 14° ENE 01:10:25 10° NNE visible
29 Jun 6.8 02:56:23 64° SW 02:56:58 68° WSW 03:03:18 10° NNW visible
30 Jun 8.9 01:23:25 17° E 01:25:53 21° ENE 01:30:30 10° NNE visible
30 Jun 7.2 03:15:40 45° WSW 03:16:02 45° W 03:22:07 10° NNW visible
01 Jul 8.4 01:42:41 26° E 01:44:35 31° ENE 01:50:10 10° N visible
01 Jul 7.8 03:34:56 30° W 03:35:11 31° W 03:40:44 10° NW visible
02 Jul 7.8 02:01:57 38° ESE 02:03:22 45° ENE 02:09:34 10° N visible
02 Jul 8.3 03:54:12 21° W 03:54:25 21° W 03:59:01 10° NW visible
03 Jul 7.2 02:21:14 57° ESE 02:22:14 66° ENE 02:28:49 10° N visible
03 Jul 8.7 04:13:29 13° W 04:13:44 13° W 04:16:36 10° WNW visible
04 Jul 9.5 00:49:35 10° ENE 00:51:49 12° NE 00:54:09 10° NE visible
04 Jul 6.9 02:40:30 73° S 02:41:11 87° WSW 02:47:55 10° NNW visible
05 Jul 9.2 01:07:32 13° E 01:10:25 18° ENE 01:14:41 10° NNE visible
05 Jul 7.0 02:59:47 58° WSW 03:00:13 60° W 03:06:52 10° NNW visible
06 Jul 8.7 01:26:49 21° E 01:29:04 26° ENE 01:34:31 10° N visible
06 Jul 7.5 03:19:04 40° WSW 03:19:19 41° W 03:25:39 10° NNW visible
07 Jul 8.2 01:46:05 32° E 01:47:47 37° ENE 01:54:03 10° N visible
07 Jul 8.0 03:38:21 28° W 03:38:32 28° W 03:44:11 10° NW visible
